{"data":{"norad_id":57332,"epoch":"2026-09-20T21:49:12.740736Z","epoch_age_seconds":88912,"freshness":"FRESH","line1":"1 57332U 23099E   26263.90917524 -.00000115  00000+0  53297-5 0  9997","line2":"2 57332  43.0016 229.8309 0001379 265.5192  94.5503 15.27577211175938","mean_motion":15.27577211,"eccentricity":0.0001379,"inclination_deg":43.0016,"raan_deg":229.8309,"arg_perigee_deg":265.5192,"mean_anomaly_deg":94.5503,"bstar":5.3297e-6,"rev_number":17593,"period_min":94.266920822767,"perigee_km":482.11128860741,"apogee_km":484.00360603598,"semimajor_km":6861.1944473217,"source":"CELESTRAK","updated_at":"2026-09-21T09:00:33.596569Z"}}